[[{"header":{"parameterUnit":"m.s-1","parameterCategory":1,"la1":30.2992,"la2":30.254,"lo1":-89.0895,"lo2":-89.0443,"dy":0.0025,"dx":0.0025,"nx":19,"ny":19,"refTime":"2026-04-12T03:00:00:Z","depth":0,"parameterNumber":2,"parameterNumberName":"U-component_of_WINDS"},"data":[0,0,0,-3.6588,-3.6591,-3.6712,-3.6712,-3.6874,-3.6876,0,0,0,0,0,0,0,0,0,0,0,-3.6556,-3.6557,-3.6588,-3.6591,-3.6712,-3.6712,-3.6874,-3.6876,0,0,0,0,0,0,0,0,0,0,0,-3.6556,-3.6557,-3.6559,-3.6592,-3.6711,-3.6712,-3.6874,-3.678,0,0,0,0,0,0,0,0,0,0,-3.6662,-3.6635,-3.6557,-3.6559,-3.6593,-3.6711,-3.6712,-3.6776,-3.6786,-3.6823,0,-3.6855,0,-3.6868,-3.6887,-3.6888,0,0,0,-3.6589,-3.6627,-3.6656,-3.6559,-3.6594,-3.6711,-3.6657,-3.6781,-3.6793,-3.6837,-3.6858,-3.6863,-3.6871,-3.6888,-3.6889,-3.7107,-3.7108,0,0,-3.6582,-3.658,-3.6648,-3.6664,-3.6644,-3.6653,-3.666,-3.6788,-3.6811,-3.6858,-3.6867,-3.6874,-3.6889,-3.6891,-3.7106,-3.7107,0,0,0,-3.6565,-3.6575,-3.6601,-3.6657,-3.6678,-3.6656,-3.6665,-3.6806,-3.6814,-3.6869,-3.6876,-3.689,-3.6892,-3.7105,-3.7107,-3.7159,0,0,0,-3.6561,-3.6565,-3.6599,-3.6598,-3.6676,-3.6743,-3.668,-3.6805,-3.682,-3.6875,-3.689,-3.6894,-3.7104,-3.7106,-3.7155,-3.7184,0,0,0,-3.6547,-3.6564,-3.6582,-3.6598,-3.665,-3.6741,-3.6757,-3.6809,-3.6824,-3.6888,-3.6894,-3.7103,-3.7105,-3.7151,-3.7178,-3.724,0,0,0,-3.6532,-3.6627,-3.6583,-3.6692,-3.6649,-3.6773,-3.6756,-3.6849,-3.691,-3.6891,-3.7104,-3.7106,-3.715,-3.7174,-3.7236,-3.7291,-3.7314,0,0,-3.6651,-3.6641,-3.6706,-3.667,-3.6801,-3.6755,-3.6894,-3.6953,-3.6962,-3.7059,-3.7064,-3.7156,-3.7177,-3.7239,-3.7445,-3.7463,0,0,0,-3.6742,-3.6788,-3.6824,-3.6881,-3.6929,-3.6971,-3.7009,-3.7031,-3.7114,-3.7011,-3.7196,-3.7209,-3.7245,-3.7272,-3.7287,-3.7318,-3.7119,-3.7119,-3.7118,-3.6905,-3.6911,-3.7019,-3.704,-3.7097,-3.7135,-3.7182,-3.7219,-3.7209,-3.7253,-3.7281,-3.7405,-3.7436,-3.7447,-3.748,-3.7312,-3.7312,-3.7312,-3.7312,-3.7078,-3.7144,-3.713,-3.7228,-3.7235,-3.7319,-3.7362,-3.7352,-3.7432,-3.7384,-3.7417,-3.7363,-3.7467,-3.7496,-3.7316,-3.7316,-3.7315,-3.7315,-3.7315,-3.7184,-3.7216,-3.7242,-3.7327,-3.7393,-3.7412,-3.749,-3.7494,-3.7499,-3.7531,-3.7561,-3.756,-3.7559,-3.7546,-3.7546,-3.7546,-3.7547,-3.7547,-3.7547,-3.7282,-3.731,-3.7373,-3.7433,-3.7471,-3.7523,-3.7565,-3.7603,-3.7647,-3.7644,-3.7645,-3.763,-3.7477,-3.7437,-3.7554,-3.7553,-3.7552,-3.7551,-3.7551,-3.7452,-3.7415,-3.7513,-3.7552,-3.7623,-3.7688,-3.7694,-3.7773,-3.7805,-3.7844,-3.7824,-3.771,-3.7701,-3.7688,-3.7655,-3.7822,-3.7822,-3.7822,-3.7822,-3.7541,-3.7537,-3.7639,-3.7701,-3.7762,-3.7777,-3.789,-3.7925,-3.7956,-3.7977,-3.7954,-3.7912,-3.7899,-3.7897,-3.7881,-3.785,-3.8063,-3.8063,-3.8063,-3.7645,-3.7648,-3.7742,-3.777,-3.7827,-3.7876,-3.7983,-3.8056,-3.8083,-3.8073,-3.7994,-3.7984,-3.7915,-3.7893,-3.7878,-3.7852,-3.7795,0,0]},{"header":{"parameterUnit":"m.s-1","parameterCategory":1,"la1":30.2992,"la2":30.254,"lo1":-89.0895,"lo2":-89.0443,"dy":0.0025,"dx":0.0025,"nx":19,"ny":19,"refTime":"2026-04-12T03:00:00:Z","depth":0,"parameterNumber":3,"parameterNumberName":"V-component_of_WINDS"},"data":[0,0,0,3.1818,3.1818,3.1807,3.1807,3.1796,3.1796,0,0,0,0,0,0,0,0,0,0,0,3.1823,3.1823,3.1818,3.1818,3.1808,3.1807,3.1796,3.1796,0,0,0,0,0,0,0,0,0,0,0,3.1823,3.1823,3.1823,3.1818,3.1808,3.1807,3.1796,3.1803,0,0,0,0,0,0,0,0,0,0,3.1813,3.182,3.1823,3.1823,3.1818,3.1808,3.1807,3.1804,3.1803,3.1802,0,3.1803,0,3.18,3.1796,3.1796,0,0,0,3.1816,3.1821,3.1816,3.1823,3.1818,3.1808,3.1812,3.1803,3.1802,3.1802,3.1803,3.1803,3.18,3.1796,3.1796,3.1802,3.1802,0,0,3.1817,3.1822,3.1817,3.1816,3.1818,3.1812,3.1811,3.1803,3.1804,3.1803,3.1802,3.1799,3.1796,3.1796,3.1802,3.1802,0,0,0,3.182,3.1823,3.1818,3.1816,3.1814,3.1812,3.1811,3.1805,3.1803,3.1802,3.1799,3.1796,3.1796,3.1802,3.1802,3.1814,0,0,0,3.182,3.1825,3.1819,3.1822,3.1815,3.181,3.1813,3.1804,3.1802,3.1799,3.1796,3.1796,3.1802,3.1802,3.1814,3.1819,0,0,0,3.1823,3.1825,3.1824,3.1822,3.1818,3.181,3.1807,3.1803,3.1801,3.1796,3.1796,3.1802,3.1802,3.1813,3.1818,3.1823,0,0,0,3.1828,3.1834,3.1825,3.183,3.1818,3.1818,3.1807,3.1806,3.1803,3.1796,3.1802,3.1802,3.1813,3.1817,3.1822,3.1828,3.1831,0,0,3.1839,3.1836,3.1839,3.183,3.1832,3.1819,3.1822,3.1814,3.1807,3.1804,3.1804,3.1814,3.1818,3.1823,3.1846,3.1848,0,0,0,3.1844,3.1846,3.1846,3.1844,3.1839,3.1834,3.1825,3.1822,3.1819,3.1807,3.1817,3.1819,3.1821,3.1824,3.1826,3.1828,3.1804,3.1804,3.1804,3.1867,3.186,3.1865,3.1856,3.1855,3.1845,3.1843,3.1838,3.183,3.1832,3.1831,3.1846,3.1849,3.1851,3.1853,3.1833,3.1833,3.1833,3.1833,3.1883,3.1885,3.1875,3.1876,3.1869,3.1869,3.186,3.1855,3.1854,3.1846,3.1848,3.1839,3.1853,3.1855,3.1834,3.1834,3.1834,3.1834,3.1834,3.1897,3.1897,3.1894,3.1892,3.189,3.1881,3.1881,3.1874,3.1866,3.1868,3.1867,3.1866,3.1865,3.1868,3.1868,3.1868,3.1868,3.1868,3.1868,3.1914,3.191,3.1911,3.1907,3.1905,3.1902,3.1893,3.1891,3.1887,3.1881,3.1881,3.1873,3.1856,3.1852,3.1869,3.1869,3.1869,3.1869,3.1869,3.1932,3.1927,3.1929,3.1928,3.1922,3.1921,3.1912,3.1909,3.1906,3.1906,3.1898,3.1887,3.1883,3.1881,3.1877,3.19,3.19,3.19,3.19,3.1945,3.1942,3.1943,3.1941,3.1938,3.1931,3.1933,3.1926,3.1919,3.1916,3.1912,3.1907,3.1906,3.1902,3.19,3.1897,3.1923,3.1923,3.1923,3.1956,3.1953,3.1956,3.195,3.1945,3.1941,3.1943,3.1941,3.1931,3.1924,3.1915,3.1914,3.1905,3.1903,3.1896,3.1893,3.1886,0,0]}]]